[[{"header":{"parameterUnit":"m.s-1","parameterCategory":1,"la1":30.2991,"la2":30.254,"lo1":-89.0895,"lo2":-89.0444,"dy":0.0017,"dx":0.0017,"nx":28,"ny":28,"refTime":"2025-05-15T21:00:00:Z","depth":0,"parameterNumber":2,"parameterNumberName":"U-component_of_WINDS"},"data":[0,0,0,0,0,0,0,0,0,0,0,0,0,0,0,0,0,0,0,0,0,0,0,0,0,0,0,0,0,0,0,0,0,0,0,0,0,0,0,0,0,0,0,0,0,0,0,0,0,0,0,0,0,0,0,0,0,0,1.8482,1.8483,0,1.856,1.8561,1.8561,1.856,1.8559,1.8558,1.8557,1.8634,1.8636,1.8639,0,0,0,0,0,0,0,0,0,0,0,0,0,1.8329,1.8332,1.8482,1.8483,1.8484,1.856,1.8561,1.8562,1.856,1.8559,1.8558,1.8557,1.8633,1.8636,1.864,0,0,0,0,0,0,0,0,0,0,0,0,0,1.84,1.8333,1.8482,1.8493,1.8494,1.8559,1.8561,1.8562,1.8561,1.8559,1.8557,1.8556,1.8631,1.8636,1.864,1.8699,0,0,1.8654,1.8656,0,0,0,0,0,0,0,0,1.8396,1.8406,1.849,1.8492,1.8494,1.8549,1.8535,1.8608,1.8561,1.8535,1.8557,1.8555,1.8606,1.8613,1.8631,1.8703,1.8706,1.8654,1.8657,1.8659,1.866,0,0,0,0,0,0,0,1.8391,1.8402,1.8513,1.8491,1.8494,1.8492,1.8501,1.8549,1.8578,1.8537,1.8538,1.8547,1.8607,1.8626,1.8632,1.8707,1.8654,1.8658,1.8661,1.8663,1.8829,1.883,0,0,0,0,0,0,1.8385,1.8398,1.851,1.8515,1.844,1.8496,1.8506,1.8533,1.8578,1.8583,1.8548,1.8547,1.8619,1.8627,1.8635,1.8706,1.8659,1.8663,1.8666,1.8827,1.8829,1.8831,0,0,0,0,0,0,1.8381,1.8395,1.8507,1.8457,1.8471,1.8501,1.8531,1.8535,1.8554,1.8586,1.8591,1.8563,1.8618,1.8629,1.8683,1.8708,1.8665,1.8669,1.8825,1.8827,1.883,1.8848,0,0,0,0,0,0,1.8377,1.8393,1.8417,1.8457,1.8474,1.8555,1.8533,1.8538,1.8562,1.8561,1.8601,1.8606,1.8618,1.8676,1.8687,1.8714,1.8673,1.8823,1.8826,1.8829,1.8845,1.8851,1.8855,0,0,0,0,0,1.8371,1.8419,1.8418,1.8432,1.8504,1.8556,1.8566,1.8579,1.8565,1.8588,1.8608,1.8605,1.8704,1.8682,1.8694,1.8722,1.8821,1.8825,1.8829,1.8843,1.885,1.8855,0,0,0,0,0,0,1.838,1.8424,1.8424,1.8487,1.8518,1.8556,1.8586,1.8586,1.8622,1.8619,1.8634,1.8643,1.8696,1.8715,1.8689,1.878,1.876,1.8767,1.8767,1.8773,1.8778,1.8773,1.8677,0,0,0,0,0,1.839,1.843,1.8465,1.8517,1.8532,1.8557,1.858,1.8588,1.862,1.8633,1.8657,1.8688,1.8726,1.8751,1.8788,1.8848,1.8855,1.8873,1.8878,1.8882,1.8887,1.8919,1.8927,1.8843,1.8843,1.8843,0,0,1.8409,1.8438,1.8462,1.8519,1.8544,1.8584,1.8568,1.8611,1.864,1.864,1.8692,1.8711,1.8746,1.8803,1.8829,1.882,1.8912,1.8887,1.889,1.8893,1.8923,1.8931,1.8938,1.8846,1.8845,1.8845,0,0,1.8464,1.8491,1.8536,1.8561,1.86,1.8615,1.8626,1.8664,1.8677,1.873,1.873,1.8764,1.8829,1.8854,1.8875,1.8938,1.8936,1.8949,1.8976,1.9007,1.9013,1.9019,1.904,1.9048,1.8955,1.8955,1.8955,0,1.8483,1.8544,1.8559,1.8602,1.8626,1.8628,1.8673,1.8696,1.8744,1.876,1.8749,1.8831,1.8855,1.8916,1.8931,1.8949,1.896,1.8945,1.9011,1.9017,1.9023,1.9043,1.9051,1.8956,1.8956,1.8956,1.8956,0,1.8565,1.8607,1.8638,1.8685,1.8713,1.8756,1.8776,1.8802,1.8807,1.8823,1.8876,1.8904,1.8946,1.8962,1.8967,1.9024,1.9016,1.9008,1.8988,1.9032,1.9051,1.9059,1.8958,1.8957,1.8957,1.8957,0,0,1.8628,1.8682,1.8693,1.8714,1.8756,1.8788,1.8831,1.8872,1.8893,1.8926,1.8961,1.9016,1.9008,1.9032,1.904,1.9066,1.9112,1.9055,1.9056,1.9063,1.9175,1.918,1.9189,1.9111,1.9113,1.9114,1.9171,0,1.8687,1.8765,1.8778,1.8845,1.8883,1.8885,1.8922,1.895,1.8966,1.8999,1.9016,1.9054,1.9042,1.9056,1.9083,1.9101,1.9135,1.9097,1.9142,1.9144,1.9133,1.9199,1.9205,1.9258,1.9179,1.918,1.9181,0,1.8767,1.8802,1.8872,1.8908,1.8924,1.8958,1.8996,1.9028,1.906,1.9069,1.9095,1.91,1.9142,1.912,1.9178,1.9152,1.9171,1.9183,1.9185,1.919,1.9165,1.9204,1.9275,1.9283,1.9193,1.9192,1.9192,0,1.8804,1.8869,1.892,1.8937,1.898,1.9003,1.9022,1.9052,1.9076,1.9109,1.9124,1.9161,1.9181,1.9209,1.9223,1.9206,1.9279,1.9259,1.9286,1.9286,1.9301,1.93,1.9376,1.9315,1.9315,1.9315,1.9315,0,1.8868,1.8911,1.8937,1.8968,1.9015,1.903,1.9076,1.9094,1.912,1.9154,1.9157,1.9188,1.9204,1.9237,1.9247,1.9293,1.9302,1.9309,1.9312,1.9309,1.9308,1.9321,1.9317,1.9317,1.9317,1.9316,1.9316,0,1.8918,1.8938,1.8992,1.9028,1.9038,1.9072,1.9102,1.9131,1.9146,1.9188,1.9198,1.9222,1.926,1.9276,1.9324,1.933,1.9382,1.9382,1.9371,1.9372,1.9398,1.9395,1.9484,1.9496,1.9429,1.9429,1.943,0,1.8957,1.899,1.903,1.9053,1.9073,1.9109,1.9133,1.9148,1.9173,1.9211,1.9235,1.9273,1.9305,1.9366,1.9386,1.9422,1.9422,1.9451,1.9427,1.9423,1.9421,1.9418,1.9421,1.9455,1.9455,1.9456,1.9456,0,1.9024,1.9032,1.9067,1.9105,1.9134,1.9165,1.9194,1.9212,1.9232,1.9259,1.9298,1.9323,1.9371,1.9408,1.9445,1.9462,1.9462,1.9464,1.9472,1.9469,1.9461,1.9464,1.9382,1.9461,1.9461,1.946,1.946,1.946,1.9069,1.9098,1.913,1.9169,1.9193,1.922,1.9249,1.9268,1.9302,1.9342,1.9349,1.939,1.9419,1.9469,1.9487,1.9519,1.9512,1.9524,1.9527,1.9529,1.953,1.9456,1.9526,1.9526,1.9526,1.9526,1.9525,0,1.9136,1.9156,1.9192,1.9233,1.9263,1.9261,1.9293,1.9318,1.9355,1.9383,1.9414,1.9458,1.9494,1.9517,1.9553,1.9574,1.9575,1.9583,1.9581,1.9585,1.9535,1.9524,1.9582,1.9582,1.9582,1.9582,1.9582,1.9582,1.9173,1.9222,1.9233,1.9292,1.9312,1.9354,1.9372,1.9397,1.9419,1.9469,1.9499,1.9514,1.9539,1.9577,1.9609,1.9615,1.9627,1.9636,1.9641,1.9594,1.9588,1.9583,1.9572,1.9639,1.9639,1.9687,1.9688,1.9688]},{"header":{"parameterUnit":"m.s-1","parameterCategory":1,"la1":30.2991,"la2":30.254,"lo1":-89.0895,"lo2":-89.0444,"dy":0.0017,"dx":0.0017,"nx":28,"ny":28,"refTime":"2025-05-15T21:00:00:Z","depth":0,"parameterNumber":3,"parameterNumberName":"V-component_of_WINDS"},"data":[0,0,0,0,0,0,0,0,0,0,0,0,0,0,0,0,0,0,0,0,0,0,0,0,0,0,0,0,0,0,0,0,0,0,0,0,0,0,0,0,0,0,0,0,0,0,0,0,0,0,0,0,0,0,0,0,0,0,4.5743,4.5743,0,4.5724,4.5724,4.5724,4.5662,4.5661,4.5659,4.5658,4.564,4.5641,4.5642,0,0,0,0,0,0,0,0,0,0,0,0,0,4.5727,4.5728,4.5743,4.5743,4.5743,4.5725,4.5724,4.5724,4.5662,4.5661,4.5659,4.5657,4.564,4.5641,4.5642,0,0,0,0,0,0,0,0,0,0,0,0,0,4.5724,4.5728,4.5743,4.571,4.5707,4.5725,4.5724,4.5724,4.5663,4.5661,4.5658,4.5656,4.564,4.5641,4.5642,4.5691,0,0,4.5646,4.5646,0,0,0,0,0,0,0,0,4.5724,4.5725,4.5715,4.5712,4.5709,4.5693,4.5712,4.5713,4.5663,4.5679,4.5658,4.5655,4.566,4.5659,4.566,4.5691,4.569,4.5646,4.5647,4.5647,4.5648,0,0,0,0,0,0,0,4.5724,4.5725,4.5736,4.5715,4.5711,4.5696,4.5693,4.5712,4.5682,4.5678,4.5673,4.5672,4.5658,4.5659,4.5659,4.569,4.5646,4.5647,4.5648,4.5648,4.5759,4.5761,0,0,0,0,0,0,4.5729,4.5726,4.5736,4.5735,4.5711,4.5698,4.5695,4.57,4.5681,4.5676,4.5674,4.5669,4.5658,4.5658,4.5659,4.5715,4.5647,4.5648,4.5649,4.5757,4.576,4.5762,0,0,0,0,0,0,4.5729,4.5731,4.5737,4.5729,4.5729,4.5701,4.5707,4.5701,4.5703,4.5678,4.5672,4.5681,4.5656,4.5657,4.5683,4.5713,4.5649,4.565,4.5754,4.5758,4.5761,4.5828,0,0,0,0,0,0,4.5729,4.5731,4.5749,4.573,4.573,4.5762,4.5709,4.5702,4.5705,4.5699,4.5683,4.5679,4.5655,4.5682,4.5685,4.5714,4.5651,4.5752,4.5756,4.576,4.5823,4.5833,4.5842,0,0,0,0,0,4.5729,4.5769,4.5751,4.5752,4.5752,4.5764,4.5764,4.5735,4.5707,4.5726,4.571,4.5679,4.571,4.5685,4.5688,4.5718,4.575,4.5755,4.5759,4.5819,4.5831,4.5842,0,0,0,0,0,0,4.5794,4.5766,4.5745,4.5781,4.5775,4.5754,4.5776,4.5749,4.5752,4.5746,4.5711,4.5708,4.574,4.5731,4.5705,4.5764,4.5724,4.573,4.5769,4.578,4.579,4.5791,4.5652,0,0,0,0,0,4.5812,4.5824,4.58,4.5834,4.5832,4.5805,4.5809,4.5787,4.578,4.5778,4.5764,4.5759,4.5767,4.5773,4.5779,4.5821,4.5817,4.5843,4.5853,4.5861,4.5866,4.5887,4.5899,4.5778,4.5778,4.5778,0,0,4.5851,4.5837,4.5847,4.5846,4.584,4.5853,4.5803,4.582,4.5829,4.578,4.5804,4.5794,4.5786,4.5821,4.5835,4.5815,4.5898,4.5867,4.5873,4.5874,4.5894,4.5905,4.5915,4.5782,4.5781,4.5781,0,0,4.5927,4.5918,4.5945,4.5939,4.5929,4.5911,4.5917,4.59,4.5891,4.5914,4.5878,4.5889,4.5904,4.59,4.59,4.5974,4.5946,4.5978,4.6027,4.6048,4.6058,4.6066,4.6093,4.6103,4.5983,4.5983,4.5983,0,4.5976,4.5995,4.5963,4.5981,4.5982,4.5938,4.5965,4.5961,4.5954,4.5956,4.5933,4.5951,4.5942,4.5975,4.5993,4.5994,4.6001,4.5979,4.6059,4.6067,4.6074,4.6099,4.6109,4.5987,4.5987,4.5986,4.5986,0,4.6056,4.6069,4.6092,4.6086,4.6089,4.6112,4.6084,4.6091,4.6069,4.6054,4.6078,4.6066,4.6069,4.6075,4.6055,4.6105,4.6093,4.6065,4.6024,4.609,4.6113,4.6122,4.5992,4.5991,4.599,4.5989,0,0,4.6173,4.6148,4.6157,4.6153,4.6139,4.6149,4.617,4.6172,4.6179,4.6176,4.6193,4.6206,4.618,4.618,4.6158,4.6177,4.6237,4.6147,4.6146,4.6164,4.6292,4.6313,4.6325,4.6218,4.622,4.6221,4.6293,0,4.6246,4.6279,4.6251,4.629,4.6302,4.626,4.6279,4.6272,4.6258,4.6266,4.6251,4.6261,4.6226,4.6225,4.6242,4.6226,4.6262,4.6221,4.6234,4.6235,4.6237,4.6337,4.6359,4.6427,4.6302,4.6303,4.6304,0,4.6335,4.6335,4.6375,4.6357,4.6361,4.6378,4.6378,4.6386,4.6378,4.6366,4.6366,4.6339,4.6359,4.6319,4.6346,4.6318,4.6322,4.6315,4.6317,4.6317,4.6273,4.6339,4.6448,4.6458,4.6318,4.6317,4.6316,0,4.6416,4.6426,4.6451,4.6449,4.643,4.6443,4.6435,4.6425,4.6428,4.6428,4.6429,4.6432,4.6434,4.6436,4.6411,4.6384,4.6441,4.6399,4.6432,4.6433,4.6446,4.6446,4.6557,4.6449,4.6449,4.6449,4.6449,0,4.65,4.6526,4.6487,4.6503,4.6531,4.6499,4.6528,4.6516,4.6507,4.652,4.6484,4.6497,4.6463,4.6472,4.6453,4.6478,4.6479,4.647,4.6465,4.6473,4.6475,4.6475,4.647,4.6451,4.6451,4.645,4.645,0,4.6596,4.6571,4.6595,4.6574,4.657,4.6591,4.6574,4.6587,4.6571,4.6587,4.6589,4.6563,4.6573,4.6548,4.6553,4.654,4.6577,4.6564,4.6579,4.6575,4.661,4.6607,4.6725,4.6739,4.6623,4.6624,4.6625,0,4.6651,4.667,4.6651,4.6656,4.665,4.666,4.6663,4.6632,4.6636,4.6628,4.6643,4.6649,4.6652,4.6669,4.6651,4.6656,4.6642,4.6683,4.6643,4.6651,4.6643,4.6642,4.6644,4.6692,4.6693,4.6695,4.6695,0,4.6751,4.6738,4.6742,4.6743,4.6747,4.6747,4.6743,4.675,4.6717,4.6724,4.6732,4.6735,4.674,4.6747,4.6747,4.674,4.6713,4.6708,4.6716,4.6725,4.6734,4.6729,4.6602,4.6706,4.6705,4.6704,4.6703,4.6703,4.6828,4.6843,4.6831,4.6838,4.6832,4.683,4.6842,4.6826,4.6833,4.6834,4.6815,4.6828,4.6819,4.6817,4.6812,4.6822,4.6803,4.6815,4.6818,4.6821,4.6827,4.6732,4.6822,4.6822,4.6821,4.6821,4.6821,0,4.6926,4.6917,4.6923,4.6919,4.6925,4.6897,4.6892,4.6899,4.691,4.6904,4.6908,4.6918,4.6924,4.6907,4.6911,4.6922,4.6909,4.6924,4.6923,4.6922,4.6843,4.6836,4.6934,4.6934,4.6934,4.6934,4.6934,4.6934,4.6978,4.7002,4.6987,4.7007,4.6998,4.7009,4.7009,4.7007,4.7001,4.7014,4.7019,4.7007,4.6996,4.6999,4.7004,4.6998,4.7001,4.7021,4.7011,4.6938,4.6927,4.6917,4.691,4.7021,4.7022,4.7088,4.7089,4.709]}]]